User: anonymous   Login
Location: Ab? ar R?sh Ba?r?
(24.1861°N, 32.8847°E)
Time: 11:50:01
(UTC+00:00)
Language:

Cosmos 2123 Rocket - Orbit

View from above orbital plane
View from above orbital plane
View from above satellite
View from above satellite

Ground track
Ground track

The orbit data is extracted from the following two-line orbital elements,

1 21090U 91007B   22025.84539644  .00000083  00000-0  69021-4 0  9996
2 21090  82.9191  64.7377 0020849  12.4149 347.7517 13.76409248555320
Epoch (UTC): 25 January 2022 20:17:22
Eccentricity: 0.0020849
inclination: 82.9191°
perigee height: 961 km
apogee height: 992 km
right ascension of ascending node: 64.7377°
argument of perigee: 12.4149°
revolutions per day: 13.76409248
mean anomaly at epoch: 347.7517°
orbit number at epoch: 55532

The dashed part of the orbit path shows where the satellite is in the earth's shadow,  

DLR